Date,TemperatureHighF,TemperatureAvgF,TemperatureLowF,DewpointHighF,DewpointAvgF,DewpointLowF,HumidityHigh,HumidityAvg,HumidityLow,PressureMaxIn,PressureMinIn,WindSpeedMaxMPH,WindSpeedAvgMPH,GustSpeedMaxMPH,PrecipitationSumIn
2012-8-20,53,52,51,50,50,49,92,92,90,29.86,29.84,8,3,14,0.00
2012-8-21,51,51,51,49,49,48,93,92,92,29.85,29.83,10,0,18,0.00
2012-8-23,61,55,51,55,51,49,94,89,75,29.94,29.84,3,0,7,0.00
2012-8-24,63,54,51,54,50,49,94,88,67,29.90,29.83,3,0,8,0.00
2012-8-25,55,52,50,52,50,48,94,92,81,29.87,29.81,7,2,18,0.00
2012-8-26,63,55,51,51,50,48,92,82,64,29.97,29.84,6,2,16,0.00
2012-8-27,74,62,52,58,53,50,92,74,54,30.04,29.93,3,0,8,0.00
2012-8-28,77,68,61,55,50,43,70,55,40,30.00,29.91,1,0,3,0.00
2012-8-29,79,69,60,56,46,31,66,46,21,29.90,29.75,3,0,7,0.00
2012-8-30,70,59,51,53,47,28,93,70,22,29.82,29.72,6,1,19,0.00
2012-8-31,57,53,51,51,50,49,94,89,78,29.94,29.82,8,4,19,0.00
2012-9-1,52,51,50,50,49,48,93,91,89,30.00,29.94,8,3,18,0.00
2012-9-2,77,65,53,56,47,27,88,58,16,29.98,29.87,0,0,3,0.00
2012-9-3,78,68,53,55,45,35,82,44,30,29.94,29.87,2,0,10,0.00
2012-9-4,65,55,49,53,49,38,94,81,39,30.00,29.92,1,0,7,0.00
2012-9-5,63,55,51,54,51,47,94,87,56,29.98,29.92,3,0,12,0.00
2012-9-6,63,55,51,51,49,48,93,83,62,30.00,29.93,6,1,13,0.00
2012-9-7,67,56,50,51,49,47,91,78,52,30.08,29.99,2,0,11,0.00
2012-9-8,64,56,51,52,50,48,92,79,58,30.05,29.94,6,2,15,0.00
2012-9-9,71,58,50,52,50,47,92,75,49,29.98,29.87,5,2,18,0.00
2012-9-10,72,59,51,55,51,45,93,77,50,29.92,29.81,5,0,14,0.00
2012-9-11,64,55,51,53,51,49,93,85,67,29.94,29.80,3,0,8,0.00
2012-9-12,65,56,51,55,52,49,94,85,66,30.07,29.93,1,0,6,0.00
2012-9-13,72,60,52,55,52,49,92,77,54,30.07,30.00,4,0,11,0.00
2012-9-14,65,55,51,54,51,49,94,86,65,30.09,30.00,2,0,7,0.00
2012-9-15,69,58,50,52,47,19,94,72,15,30.09,29.97,2,0,8,0.00
2012-9-16,67,55,48,53,48,24,94,81,21,30.02,29.96,1,0,8,0.00
2012-9-17,60,53,50,50,49,48,94,86,68,30.05,29.98,5,1,13,0.00
2012-9-18,64,54,48,51,48,45,92,81,60,30.09,30.00,6,1,13,0.00
2012-9-19,64,55,50,51,49,48,92,81,61,30.09,30.01,7,2,17,0.00
2012-9-20,68,57,49,52,48,45,92,75,50,30.05,29.96,7,1,14,0.00
2012-9-21,70,59,50,52,48,41,90,70,44,29.97,29.87,1,0,8,0.00
2012-9-22,72,63,53,55,45,34,85,54,31,29.91,29.85,1,0,5,0.00
2012-9-23,75,63,51,55,48,35,93,61,33,29.92,29.84,2,0,9,0.00
2012-9-24,70,56,50,54,51,48,94,84,56,29.95,29.86,6,0,13,0.00
2012-9-25,63,55,50,53,50,48,94,85,70,29.91,29.83,5,0,14,0.00
2012-9-26,63,54,50,52,50,46,94,85,54,29.88,29.82,4,1,13,0.00
2012-9-27,76,58,50,56,51,47,93,80,48,29.90,29.82,0,0,2,0.00
2012-9-28,63,53,49,52,50,47,94,90,64,29.96,29.82,3,0,8,0.00
2012-9-29,77,61,50,56,50,38,94,72,26,30.03,29.94,1,0,7,0.00
2012-9-30,90,78,68,56,44,19,50,32,10,30.02,29.92,2,0,8,0.00
2012-10-1,96,83,74,50,31,15,32,16,8,29.95,29.84,6,0,16,0.00
2012-10-2,96,86,76,49,34,21,27,16,11,29.84,29.74,3,0,11,0.00
2012-10-3,82,68,55,56,46,32,94,56,17,29.95,29.75,6,1,13,0.00
2012-10-4,60,56,54,53,52,50,94,88,75,30.11,29.95,9,3,20,0.00
2012-10-5,64,57,54,55,52,51,93,85,70,30.13,30.05,3,0,9,0.00
2012-10-6,66,58,53,53,49,47,91,75,53,30.05,29.95,2,0,10,0.00
2012-10-7,63,56,52,53,51,48,91,83,69,30.00,29.92,3,0,12,0.00
2012-10-8,62,56,52,53,51,48,93,84,66,30.03,29.97,5,1,12,0.00
2012-10-9,66,57,53,53,51,50,93,81,59,30.00,29.92,2,0,10,0.00
2012-10-10,65,55,52,54,50,47,93,84,58,29.94,29.86,5,1,17,0.01
2012-10-11,53,52,51,50,49,48,93,91,86,29.95,29.86,8,2,17,0.00
2012-10-12,56,52,50,49,48,47,93,86,77,30.21,29.93,1,0,10,0.01
2012-10-13,69,58,50,54,50,46,91,75,48,30.28,30.16,1,0,8,0.00
2012-10-14,72,60,54,59,54,52,94,83,58,30.19,30.06,1,0,6,0.00
2012-10-15,74,63,54,58,55,52,93,75,57,30.06,29.95,1,0,3,0.01
2012-10-16,76,64,62,61,47,-100,87,67,57,29.97,29.84,2,-46,7,0.00
2012-10-17,84,71,63,55,32,-100,69,28,11,29.88,29.79,1,-4,6,0.00
2012-10-18,81,72,62,60,40,23,93,36,14,29.98,29.82,6,0,17,0.00
2012-10-19,62,58,54,60,56,52,95,94,93,30.03,29.90,4,0,11,0.00
2012-10-20,66,56,52,58,51,45,95,85,60,29.91,29.77,5,1,13,0.00
2012-10-21,59,53,50,49,44,36,92,73,52,29.91,29.81,7,1,17,0.03
2012-10-22,57,52,48,50,47,42,94,85,60,29.90,29.68,11,2,30,1.12
2012-10-23,58,52,48,48,44,37,93,78,46,30.03,29.91,2,0,9,0.11
2012-10-24,61,53,48,49,47,44,90,79,60,30.17,30.00,5,1,14,0.03
2012-10-25,65,54,50,52,47,39,93,77,49,30.24,30.16,0,0,7,0.06
2012-10-26,72,61,52,51,38,29,65,45,20,30.21,30.05,2,0,7,0.00
2012-10-27,75,67,58,56,52,48,78,60,42,30.05,29.92,3,0,8,0.00
2012-10-28,75,66,55,58,54,50,91,67,53,29.98,29.92,0,0,3,0.00
2012-10-29,72,60,53,58,52,47,91,76,41,30.08,29.98,0,0,6,0.00
2012-10-30,65,55,50,56,52,48,94,89,70,30.06,29.95,1,0,7,0.00
2012-10-31,58,55,53,54,52,51,95,91,80,30.00,29.93,6,1,17,0.17
2012-11-1,62,56,52,56,52,42,94,87,63,30.03,29.96,4,0,11,0.20
2012-11-2,63,54,49,50,46,40,86,73,60,30.07,30.01,3,0,10,0.00
2012-11-3,73,59,52,58,43,-100,81,63,40,30.12,30.04,0,-29,1,0.00
2012-11-4,78,67,60,58,44,-100,71,54,38,30.18,30.10,0,-28,1,0.00
2012-11-5,78,70,62,58,50,38,64,49,30,30.11,30.01,1,0,11,0.00
2012-11-6,78,71,64,56,51,40,62,50,37,30.04,29.96,0,0,3,0.00
2012-11-7,65,53,50,52,50,46,95,92,52,30.02,29.90,8,1,18,0.00
2012-11-8,55,49,45,48,41,36,92,74,62,29.94,29.86,6,1,18,0.04
2012-11-9,53,46,40,41,38,31,92,76,45,29.97,29.87,0,0,1,0.03
2012-11-10,56,47,42,38,37,33,82,68,43,30.22,29.96,0,0,1,0.00
2012-11-11,58,48,42,42,37,33,81,66,50,30.36,30.23,0,0,1,0.00
2012-11-12,60,51,45,37,33,29,63,50,34,30.36,30.24,0,0,2,0.00
2012-11-13,66,56,50,37,33,26,52,43,27,30.24,30.06,1,0,11,0.00
2012-11-14,67,58,52,47,42,37,72,55,40,30.08,29.97,1,0,11,0.00
2012-11-15,65,58,54,48,44,36,75,61,41,30.00,29.93,0,0,1,0.00
2012-11-16,61,55,53,53,47,-100,92,77,58,29.97,29.83,1,-12,1,0.02
2012-11-17,56,55,50,54,52,48,94,93,88,29.98,29.77,1,-4,1,0.00
2012-11-18,57,50,48,48,40,-100,94,76,63,30.15,29.98,0,-21,1,0.00
2012-11-19,63,53,52,48,31,-100,76,57,48,30.21,30.13,1,-63,1,0.00
2012-11-20,61,55,53,55,48,-100,93,83,70,30.13,30.00,1,-25,1,0.00
2012-11-21,60,54,47,58,50,42,94,85,57,30.18,30.01,0,0,1,0.00
2012-11-22,64,53,46,47,43,38,88,68,44,30.24,30.16,0,0,1,0.00
2012-11-23,67,56,50,46,43,40,81,63,45,30.23,30.14,0,0,1,0.00
2012-11-24,68,59,55,48,42,36,73,54,37,30.16,30.00,0,0,1,0.00
2012-11-25,65,55,50,51,48,46,91,78,51,30.00,29.91,0,0,1,0.00
2012-11-26,63,55,51,52,48,45,84,77,66,30.03,29.94,0,0,1,0.00
2012-12-27,55,46,41,40,37,35,82,73,52,30.15,30.08,0,0,1,0.00
2012-12-28,46,43,40,38,36,30,91,76,60,30.16,30.03,0,0,1,0.00
2012-12-29,51,43,38,40,37,35,92,80,64,30.07,30.00,0,0,1,0.00
2012-12-30,55,46,40,40,35,27,86,68,49,30.16,30.03,0,0,1,0.00
2012-12-31,51,44,39,37,29,21,79,56,40,30.28,30.15,0,0,5,0.00
2013-1-1,50,44,37,40,30,22,85,60,37,30.24,30.19,0,0,5,0.00